Redwood Falls, MN

3:21 PM CST on December 13, 2017 (GMT -0600)
Redwood Falls Municipal

Weather History for KRWF - March, 2013

Change the Weather History Date:

Tuesday, March 12, 2013

  Actual Average Record
Temperature  
Mean Temperature 24 °F -  
Max Temperature 28 °F 36 °F 69 °F (2016)
Min Temperature 19 °F 21 °F -14 °F (1956)
Degree Days  
Heating Degree Days 42    
Moisture  
Dew Point 16 °F    
Average Humidity 73    
Maximum Humidity 81    
Minimum Humidity 60    
Precipitation  
Precipitation 0.00 in - - ()
Sea Level Pressure  
Sea Level Pressure 30.07 in    
Wind  
Wind Speed 16 mph (NW)    
Max Wind Speed 28 mph    
Max Gust Speed 37 mph    
Visibility 10 miles    
Events Snow    
Averages and records for this station are not official NWS values.
T = Trace of Precipitation, MM = Missing Value Source: NWS Daily Summary

Daily Weather History Graph

Daily Weather History Graph

Search for Another Location

Airport or City:

Trip Planner

Search our weather history database for the weather conditions in past years. The results will help you decide how hot, cold, wet, or windy it might be!

Date:

Astronomy

Mar. 12, 2013 Rise Set
Actual Time 7:37 AM CDT 7:22 PM CDT
Civil Twilight 7:08 AM CDT 7:51 PM CDT
Nautical Twilight 6:34 AM CDT 8:25 PM CDT
Astronomical Twilight 6:00 AM CDT 9:00 PM CDT
Moon 7:41 AM CDT (3/12) 8:44 PM CDT (3/12)
Length of Visible Light 12h 43m
Length of Day
11h 45m
New Moon, 1% of the Moon is Illuminated
Mar 12
New Moon
Mar 19
First Quarter
Mar 27
Full
Apr 2
Last Quarter
Apr 10
New

Hourly Weather History & Observations

Time (CDT) Temp. Windchill Dew Point Humidity Pressure Visibility Wind Dir Wind Speed Gust Speed Precip Events Conditions
12:53 AM 27.0 °F 15.6 °F 19.9 °F 75% 29.91 in 10.0 mi WNW 13.8 mph - N/A   Overcast
1:53 AM 28.0 °F 17.5 °F 21.9 °F 78% 29.91 in 10.0 mi West 12.7 mph - N/A   Overcast
2:53 AM 28.9 °F 18.6 °F 23.0 °F 78% 29.90 in 10.0 mi WNW 12.7 mph - N/A   Overcast
3:23 AM 28.4 °F 18.5 °F 23.0 °F 80% 29.86 in 10.0 mi WNW 11.5 mph - N/A   Overcast
3:53 AM 28.9 °F 18.2 °F 23.0 °F 78% 29.90 in 10.0 mi West 13.8 mph - N/A   Overcast
4:53 AM 27.0 °F 15.2 °F 21.9 °F 81% 29.90 in 10.0 mi WNW 15.0 mph - N/A   Overcast
5:53 AM 27.0 °F 16.1 °F 21.9 °F 81% 29.92 in 5.0 mi NW 12.7 mph 19.6 mph 0.00 in Snow Light Snow
6:43 AM 24.8 °F 11.9 °F 17.6 °F 74% 29.90 in 6.0 mi NW 16.1 mph 24.2 mph 0.00 in   Haze
6:53 AM 23.0 °F 11.1 °F 17.1 °F 78% 29.95 in 10.0 mi NW 12.7 mph 21.9 mph 0.00 in   Overcast
7:53 AM 19.9 °F 6.7 °F 15.1 °F 81% 29.98 in 7.0 mi NNW 13.8 mph 18.4 mph 0.00 in   Mostly Cloudy
8:53 AM 19.0 °F 6.1 °F 12.9 °F 77% 30.02 in 10.0 mi NNW 12.7 mph - N/A   Clear
9:53 AM 19.0 °F 5.0 °F 12.9 °F 77% 30.05 in 7.0 mi NNW 15.0 mph 23.0 mph N/A   Mostly Cloudy
10:31 AM 21.2 °F 6.0 °F 14.0 °F 74% 30.01 in 10.0 mi NW 19.6 mph 26.5 mph N/A   Mostly Cloudy
10:53 AM 21.9 °F 7.8 °F 15.1 °F 75% 30.07 in 10.0 mi NW 17.3 mph 25.3 mph N/A   Partly Cloudy
11:53 AM 24.1 °F 8.7 °F 15.1 °F 69% 30.09 in 10.0 mi NW 23.0 mph 28.8 mph N/A   Scattered Clouds
12:53 PM 24.1 °F 8.3 °F 16.0 °F 71% 30.10 in 10.0 mi NW 24.2 mph 31.1 mph N/A   Mostly Cloudy
1:20 PM 24.8 °F 10.3 °F 15.8 °F 69% 30.06 in 8.0 mi NW 20.7 mph 28.8 mph N/A   Overcast
1:53 PM 26.1 °F 10.4 °F 16.0 °F 66% 30.11 in 10.0 mi NW 26.5 mph 35.7 mph N/A   Mostly Cloudy
2:04 PM 26.6 °F 11.7 °F 15.8 °F 64% 30.06 in 10.0 mi NW 24.2 mph 35.7 mph N/A   Scattered Clouds
2:53 PM 26.1 °F 11.0 °F 14.0 °F 60% 30.11 in 10.0 mi NW 24.2 mph 33.4 mph N/A   Partly Cloudy
3:46 PM 26.6 °F 11.7 °F 15.8 °F 64% 30.08 in 10.0 mi NW 24.2 mph 34.5 mph N/A   Mostly Cloudy
3:53 PM 26.1 °F 11.0 °F 14.0 °F 60% 30.13 in 10.0 mi NW 24.2 mph 34.5 mph N/A   Mostly Cloudy
4:53 PM 26.1 °F 10.1 °F 15.1 °F 63% 30.15 in 10.0 mi NW 27.6 mph 36.8 mph N/A   Mostly Cloudy
5:53 PM 24.1 °F 10.6 °F 15.1 °F 69% 30.17 in 10.0 mi NW 17.3 mph 34.5 mph N/A   Mostly Cloudy
6:06 PM 24.8 °F 10.3 °F 14.0 °F 64% 30.12 in 10.0 mi NW 20.7 mph 31.1 mph N/A   Scattered Clouds
6:53 PM 24.1 °F 10.6 °F 15.1 °F 69% 30.19 in 10.0 mi NNW 17.3 mph 28.8 mph N/A   Clear
7:53 PM 21.9 °F 8.2 °F 14.0 °F 72% 30.23 in 10.0 mi NNW 16.1 mph 27.6 mph N/A   Clear
8:53 PM 19.9 °F 6.7 °F 14.0 °F 78% 30.26 in 10.0 mi NNW 13.8 mph 28.8 mph N/A   Partly Cloudy
9:51 PM 19.4 °F 3.6 °F 14.0 °F 80% 30.22 in 10.0 mi NNW 19.6 mph 28.8 mph N/A   Mostly Cloudy
9:53 PM 19.9 °F 4.8 °F 14.0 °F 78% 30.27 in 10.0 mi NNW 18.4 mph 24.2 mph N/A   Mostly Cloudy
10:17 PM 19.4 °F 4.1 °F 14.0 °F 80% 30.23 in 10.0 mi NNW 18.4 mph 27.6 mph N/A   Scattered Clouds
10:53 PM 19.0 °F 4.0 °F 12.9 °F 77% 30.29 in 10.0 mi NNW 17.3 mph 25.3 mph N/A   Clear
11:53 PM 19.0 °F 5.6 °F 12.9 °F 77% 30.31 in 10.0 mi NW 13.8 mph - N/A   Clear